Location: Unspecified
(37.6100°N, 2.7800°W)
Time: 23:06:48
(UTC+00:00)

Hubble Space Telescope - Visible Passes

Search period start: 20 October 2018 00:00
Search period end: 30 October 2018 00:00
Orbit: 537 x 541 km, 28.5° (Epoch: 20 October)

Date Brightness Start Highest point End Pass type
(mag) Time Alt. Az. Time Alt. Az. Time Alt. Az.
20 Oct 2.8 04:14:30 20° SSE 04:14:30 20° SSE 04:16:40 10° SE visible
20 Oct 2.7 05:51:02 10° WSW 05:54:07 20° S 05:57:11 10° SE visible
21 Oct 3.1 04:04:46 17° SE 04:04:46 17° SE 04:06:13 10° SE visible
21 Oct 2.7 05:40:41 10° SW 05:43:36 19° S 05:46:31 10° SE visible
22 Oct 3.5 03:55:01 13° SE 03:55:01 13° SE 03:55:44 10° SE visible
22 Oct 2.8 05:30:25 10° SW 05:33:06 17° SSW 05:35:47 10° SSE visible
23 Oct 2.9 05:20:39 11° SW 05:22:35 15° SSW 05:24:56 10° SSE visible
24 Oct 3.0 05:10:58 12° SW 05:12:04 13° SSW 05:13:54 10° S visible
25 Oct 3.2 05:01:18 11° SSW 05:01:31 11° SSW 05:02:27 10° S visible
